Weather History for Frankfurt / M-Flughafen, Germany

Change the Weather History Date:

Sunday, December 8, 2013

  Actual Average Record
Temperature  
Mean Temperature 42 °F -  
Max Temperature 45 °F 39 °F - ()
Min Temperature 39 °F 30 °F - ()
Degree Days  
Heating Degree Days 23    
Moisture  
Dew Point 39 °F    
Average Humidity 85    
Maximum Humidity 93    
Minimum Humidity 71    
Precipitation  
Precipitation 0.00 in - - ()
Sea Level Pressure  
Sea Level Pressure 30.33 in    
Wind  
Wind Speed 9 mph ()    
Max Wind Speed 17 mph    
Max Gust Speed 22 mph    
Visibility 8.9 miles    
Events Rain    
T = Trace of Precipitation, MM = Missing Value Source: Averaged Metar Reports

Daily Weather History Graph

Daily Weather History Graph

Search for Another Location

Airport:

Trip Planner

Search our weather history database for the weather conditions in past years. The results will help you decide how hot, cold, wet, or windy it might be!

Date:

Astronomy

Dec. 08, 2013 Rise Set
Actual Time 8:11 AM CET 4:23 PM CET
Civil Twilight 7:33 AM CET 5:01 PM CET
Nautical Twilight 6:51 AM CET 5:43 PM CET
Astronomical Twilight 6:12 AM CET 6:22 PM CET
Moon 11:55 AM CET (12/8) 11:24 PM CET (12/8)
Length of Visible Light 9h 28m
Length of Day
8h 12m
Waxing Crescent, 37% of the Moon is Illuminated
Dec 8
Waxing Crescent
Dec 9
First Quarter
Dec 17
Full
Dec 25
Last Quarter
Jan 1
New

Hourly Weather History & Observations

Time (CET) Temp. Windchill Dew Point Humidity Pressure Visibility Wind Dir Wind Speed Gust Speed Precip Events Conditions
12:00 AM 41 °F - 37 °F 81% 30.32 in 16 mi SW 13.4 mph - -   Mostly Cloudy
12:20 AM 41.0 °F 34.3 °F 37.4 °F 87% 30.30 in 6.2 mi SSW 11.5 mph - N/A   Mostly Cloudy
12:50 AM 41.0 °F 34.7 °F 37.4 °F 87% 30.30 in 6.2 mi SSW 10.4 mph - N/A   Mostly Cloudy
1:00 AM 41 °F - 37 °F 81% 30.32 in 16 mi SSW 11.2 mph - -   Mostly Cloudy
1:20 AM 41.0 °F 35.2 °F 37.4 °F 87% 30.30 in 6.2 mi SSW 9.2 mph - N/A   Mostly Cloudy
1:50 AM 41.0 °F 35.2 °F 37.4 °F 87% 30.30 in 6.2 mi SSW 9.2 mph - N/A   Mostly Cloudy
2:00 AM 40 °F - 37 °F 85% 30.32 in 16 mi SSW 8.9 mph - -   Mostly Cloudy
2:20 AM 39.2 °F 33.6 °F 37.4 °F 93% 30.30 in 6.2 mi SSW 8.1 mph - N/A   Mostly Cloudy
2:50 AM 39.2 °F 33.6 °F 37.4 °F 93% 30.30 in 6.2 mi SSW 8.1 mph - N/A   Mostly Cloudy
3:00 AM 40 °F - 37 °F 85% 30.33 in 16 mi SSW 8.9 mph - -   Mostly Cloudy
3:20 AM 41.0 °F 35.8 °F 37.4 °F 87% 30.30 in 6.2 mi SSW 8.1 mph - N/A   Mostly Cloudy
3:50 AM 41.0 °F 35.8 °F 37.4 °F 87% 30.30 in - South 8.1 mph - N/A   Clear
4:20 AM 41.0 °F 37.1 °F 37.4 °F 87% 30.30 in - South 5.8 mph - N/A   Clear
4:50 AM 41.0 °F 36.4 °F 37.4 °F 87% 30.30 in - SSW 6.9 mph - N/A   Clear
5:00 AM 40 °F - 37 °F 86% 30.32 in 16 mi SSW 6.7 mph - -   Mostly Cloudy
5:20 AM 41.0 °F 35.2 °F 39.2 °F 93% 30.30 in - South 9.2 mph - N/A   Clear
5:50 AM 41.0 °F 35.2 °F 39.2 °F 93% 30.30 in - SSW 9.2 mph 20.7 mph N/A   Clear
6:00 AM 41 °F - 38 °F 84% 30.32 in 14 mi SSW 8.9 mph - -   Mostly Cloudy
6:20 AM 41.0 °F 35.2 °F 39.2 °F 93% 30.30 in - SSW 9.2 mph - N/A   Clear
6:50 AM 41.0 °F 35.8 °F 37.4 °F 87% 30.33 in - SSW 8.1 mph - N/A   Clear
7:00 AM 40 °F - 37 °F 87% 30.34 in 12 mi SSW 6.7 mph - -   Mostly Cloudy
7:20 AM 41.0 °F 36.4 °F 39.2 °F 93% 30.33 in 6.2 mi South 6.9 mph - N/A   Mostly Cloudy
7:50 AM 41.0 °F 35.8 °F 39.2 °F 93% 30.33 in 6.2 mi South 8.1 mph - N/A   Mostly Cloudy
8:00 AM 41 °F - 38 °F 85% 30.35 in 10 mi South 8.9 mph - -   Mostly Cloudy
8:20 AM 41.0 °F 35.8 °F 39.2 °F 93% 30.33 in 6.2 mi SSW 8.1 mph - N/A   Mostly Cloudy
8:50 AM 41.0 °F 35.8 °F 39.2 °F 93% 30.33 in 6.2 mi South 8.1 mph 19.6 mph N/A   Mostly Cloudy
9:00 AM 41 °F - 38 °F 86% 30.35 in 10 mi South 8.9 mph - -   Mostly Cloudy
9:20 AM 41.0 °F 34.7 °F 39.2 °F 93% 30.33 in 6.2 mi South 10.4 mph 21.9 mph N/A   Mostly Cloudy
9:50 AM 41.0 °F 35.8 °F 39.2 °F 93% 30.33 in 6.2 mi South 8.1 mph - N/A   Mostly Cloudy
10:20 AM 42.8 °F 38.0 °F 39.2 °F 87% 30.36 in 6.2 mi SSW 8.1 mph - N/A   Mostly Cloudy
10:50 AM 42.8 °F 38.6 °F 41.0 °F 93% 30.36 in 6.2 mi SSW 6.9 mph - N/A   Mostly Cloudy
11:00 AM 42 °F - 39 °F 86% 30.38 in 10 mi SSW 6.7 mph - - Rain Light Rain
11:20 AM 42.8 °F 36.6 °F 41.0 °F 93% 30.33 in 6.2 mi SSW 11.5 mph - N/A   Mostly Cloudy
11:50 AM 42.8 °F 36.6 °F 41.0 °F 93% 30.36 in 6.2 mi SSW 11.5 mph - N/A   Mostly Cloudy
12:00 PM 44 °F - 40 °F 79% 30.37 in 8 mi SSW 11.2 mph - -   Mostly Cloudy
12:20 PM 44.6 °F 39.7 °F 41.0 °F 87% 30.36 in 6.2 mi South 9.2 mph - N/A   Mostly Cloudy
12:50 PM 44.6 °F 40.2 °F 41.0 °F 87% 30.33 in 6.2 mi SSW 8.1 mph - N/A   Mostly Cloudy
1:00 PM 44 °F - 40 °F 79% 30.36 in 11 mi SSW 8.9 mph - -   Partly Cloudy
1:20 PM 44.6 °F 38.1 °F 41.0 °F 87% 30.33 in 6.2 mi SSW 13.8 mph - N/A   Mostly Cloudy
1:50 PM 46.4 °F 40.4 °F 39.2 °F 76% 30.33 in 6.2 mi SW 13.8 mph - N/A   Mostly Cloudy
2:00 PM 46 °F - 40 °F 71% 30.34 in 12 mi SW 13.4 mph - - Rain Light Rain
2:20 PM 44.6 °F 38.1 °F 39.2 °F 81% 30.33 in 6.2 mi SW 13.8 mph - N/A   Mostly Cloudy
2:50 PM 44.6 °F 38.4 °F 41.0 °F 87% 30.33 in 6.2 mi WSW 12.7 mph - N/A Rain Light Rain
3:00 PM 45 °F - 40 °F 77% 30.34 in 9 mi WSW 11.2 mph - - Rain Light Rain
3:20 PM 44.6 °F 38.1 °F 41.0 °F 87% 30.33 in 6.2 mi SW 13.8 mph - N/A   Mostly Cloudy
3:50 PM 44.6 °F 38.4 °F 41.0 °F 87% 30.33 in 6.2 mi SW 12.7 mph - N/A   Mostly Cloudy
4:20 PM 44.6 °F 38.8 °F 41.0 °F 87% 30.30 in 6.2 mi SW 11.5 mph - N/A   Mostly Cloudy
4:50 PM 44.6 °F 38.8 °F 41.0 °F 87% 30.30 in 6.2 mi SSW 11.5 mph - N/A   Mostly Cloudy
5:00 PM 44 °F - 40 °F 79% 30.33 in 19 mi SSW 11.2 mph - - Rain Light Rain
5:20 PM 44.6 °F 38.4 °F 39.2 °F 81% 30.30 in 6.2 mi SSW 12.7 mph - N/A   Mostly Cloudy
5:50 PM 44.6 °F 37.8 °F 39.2 °F 81% 30.30 in 6.2 mi SSW 15.0 mph - N/A   Mostly Cloudy
6:00 PM 44 °F - 39 °F 76% 30.33 in 19 mi SSW 13.4 mph - - Rain Light Rain
6:20 PM 44.6 °F 38.4 °F 39.2 °F 81% 30.30 in 6.2 mi SSW 12.7 mph - N/A   Mostly Cloudy
6:50 PM 44.6 °F 38.4 °F 39.2 °F 81% 30.33 in 6.2 mi SSW 12.7 mph - N/A   Mostly Cloudy
7:00 PM 44 °F - 38 °F 73% 30.34 in 19 mi SSW 13.4 mph - -   Partly Cloudy
7:20 PM 44.6 °F 39.2 °F 39.2 °F 81% 30.33 in 6.2 mi SSW 10.4 mph - N/A   Mostly Cloudy
7:50 PM 44.6 °F 40.2 °F 39.2 °F 81% 30.33 in 6.2 mi SSW 8.1 mph - N/A   Mostly Cloudy
8:00 PM 44 °F - 39 °F 76% 30.35 in 19 mi SSW 8.9 mph - -   Mostly Cloudy
8:20 PM 44.6 °F 39.2 °F 39.2 °F 81% 30.33 in 6.2 mi SSW 10.4 mph - N/A   Mostly Cloudy
8:50 PM 44.6 °F 39.7 °F 39.2 °F 81% 30.33 in 6.2 mi South 9.2 mph 20.7 mph N/A   Mostly Cloudy
9:00 PM 44 °F - 39 °F 77% 30.36 in 19 mi South 8.9 mph - -   Mostly Cloudy
9:20 PM 44.6 °F 40.2 °F 39.2 °F 81% 30.33 in 6.2 mi South 8.1 mph - N/A   Mostly Cloudy
9:50 PM 44.6 °F 39.2 °F 39.2 °F 81% 30.33 in 6.2 mi SSW 10.4 mph - N/A   Mostly Cloudy
10:20 PM 44.6 °F 38.4 °F 39.2 °F 81% 30.33 in 6.2 mi SSW 12.7 mph - N/A   Mostly Cloudy
10:50 PM 44.6 °F 38.1 °F 39.2 °F 81% 30.36 in 6.2 mi SW 13.8 mph - N/A   Mostly Cloudy
11:00 PM 45 °F - 39 °F 73% 30.37 in 19 mi SW 13.4 mph - -   Overcast
11:20 PM 44.6 °F 37.2 °F 39.2 °F 81% 30.33 in 6.2 mi SSW 17.3 mph - N/A   Mostly Cloudy
11:50 PM 44.6 °F 38.4 °F 39.2 °F 81% 30.36 in 6.2 mi SSW 12.7 mph - N/A   Mostly Cloudy